USA 153

Last updated on Nov. 18, 2019, 4:21 a.m. UTC

1 26575U 00065A   19321.43931359 -.00000316  00000-0  00000+0 0  9999
2 26575   7.5516  51.0582 0001398 165.0157 132.6063  1.00276611  7505
UTC
Height (km)
Latitude
Longitude
Inclination
Orbital Period
UTC large
Height (km)
Speed (km/s)
/
Latitude / Longitude
Inclination (degrees)
Orbital Period (minutes)
Azimuth
Elevation
Range (km)
Doppler Factor
iOS Compass Heading
iOS Angle

Next 30 passes for location: Hong Kong

Rise time Rise Azimuth (degrees) Set time Set Azimuth (degrees) Duration Max altitude (degrees)

No matching passes for this satellites